Home   Weather   Allentown   Past weeks

Flag for USA Past Weather in Allentown, Pennsylvania, USA — Yesterday and Last 2 Weeks

Now
39 °F

Fog.


Feels Like: 39 °F
Forecast: 38 / 50 °F
Wind: No wind

Location: Lehigh Valley International Airport

Current Time: Jan 21, 2017 at 6:15:12 am

Latest Report: Jan 21, 2017 at 5:13 am


Visibility: 1 mi

Pressure: 29.89 "Hg

Humidity: 93%

Dew Point: 37 °F

Location of AllentownLocation

Past Weather in Allentown — Graph

°F

Allentown Temperature Yesterday

Maximum temperature yesterday: 41 °F (at 11:51 am)
Minimum temperature yesterday: 27 °F (at 6:51 am)
Average temperature yesterday: 36 °F

High & Low Weather Summary for the Past Weeks

 TemperatureHumidityPressure
High58 °F (Jan 12, 1:51 pm)93% (Jan 12, 2:51 am)30.75 "Hg (Jan 12, 2:51 am)
Low10 °F (Jan 9, 2:51 am)33% (Jan 8, 1:51 pm)29.90 "Hg (Jan 18, 3:51 am)
Average33 °F70%30.26 "Hg
* Reported Jan 6 4:51 am — Jan 21 4:51 am, Allentown, Weather by CustomWeather, © 2017

Note: Actual official high and low records may vary slightly from our data, if they occured in-between our weather recording intervals... More about our weather records

Advertising

Allentown Weather History for the Previous 24 Hours

Scroll right to see more
 ConditionsComfort  
Time TempWeatherWind HumidityBarometerVisibility
4:51 am
Sat, Jan 21
39 °FFog.3 mph93%29.90 "Hg1 mi
3:51 am39 °FFog.No wind93%29.92 "Hg1 mi
3:16 am40 °FFog.No wind93%29.91 "Hg0 mi
2:51 am40 °FFog.5 mph89%29.93 "Hg1 mi
1:51 am39 °FFog.3 mph93%29.92 "Hg1 mi
1:17 am40 °FFog.No wind89%29.91 "Hg1 mi
12:51 am40 °FFog.No wind93%29.91 "Hg1 mi
11:51 pm
Fri, Jan 20
40 °FFog.No wind93%29.93 "Hg1 mi
10:51 pm40 °FFog.3 mph89%29.92 "Hg1 mi
10:20 pm40 °FFog.No wind89%29.91 "Hg1 mi
9:51 pm39 °FFog.5 mph93%29.91 "Hg1 mi
9:00 pm39 °FFog.3 mph89%29.90 "Hg1 mi
8:12 pm39 °FLight rain. Fog.No wind93%29.91 "Hg1 mi
7:51 pm40 °FFog.No wind89%29.92 "Hg2 mi
6:51 pm40 °FLight rain. Fog.5 mph86%29.91 "Hg2 mi
5:51 pm40 °FFog.3 mph86%29.91 "Hg5 mi
4:51 pm40 °FLow clouds.No wind86%29.91 "Hg7 mi
3:51 pm40 °FLight rain. Fog.6 mph86%29.91 "Hg4 mi
2:51 pm40 °FLight rain. Fog.5 mph86%29.92 "Hg4 mi
2:18 pm40 °FRain. Low clouds.3 mph83%29.92 "Hg4 mi
1:51 pm40 °FRain. Overcast.3 mph83%29.93 "Hg4 mi
1:05 pm40 °FRain. Overcast.5 mph80%29.93 "Hg5 mi
12:51 pm40 °FLight rain. Overcast.6 mph80%29.94 "Hg6 mi
11:51 am41 °FPartly sunny.5 mph74%29.97 "Hg10 mi
10:51 am40 °FOvercast.3 mph73%30.01 "Hg10 mi
9:51 am38 °FSunny.No wind79%30.01 "Hg10 mi
9:20 am35 °FScattered clouds.6 mph85%29.99 "Hg9 mi
8:51 am33 °FFog.3 mph88%30.00 "Hg6 mi
7:51 am28 °FIce fog.No wind93%30.00 "Hg5 mi
6:51 am27 °FIce fog.No wind89%30.00 "Hg6 mi
6:02 am28 °FIce fog.No wind89%29.98 "Hg6 mi
Weather by CustomWeather, © 2017

See weather overviewHow to use our weather pages